www.pogodaiklimat.ru

Погода и климат >> Архив погоды >> Португалия >> Остров Грасьоса


ПОГОДА на Острове Грасьоса

  • Прогноз погоды на Острове Грасьоса
  • Монитор погоды на Острове Грасьоса

АРХИВ ПОГОДЫ на Острове Грасьоса

Время (UTC), дата Ветер
(напр.,м/с)
 
Видим.   Явления Облачность Т
(С)
Тd
(С)
f
(%)
Тe
(С)
Тes
(С)
Комфортность P
(гПа)
Po
(гПа)
Тmin
(С)
Tmax
(С)
R
(мм)
R24
(мм)
S
(см)
18 16.07 штиль 0 20 км 1/1 600 м
[Cu Sc]
+24.3 +14.5 54 +27 +36 жарко 1027.7 1024.8 +25.5 0.3
21 16.07 штиль 0 н/о н/о +22.0 +13.3 58 +25 +25 комфорт 1027.9 1025.0
00 17.07 штиль 0 н/о н/о +18.9 +10.4 58 +20 +20 1028.4 1025.4
03 17.07 штиль 0 н/о н/о +19.5 +11.1 58 +21 +21 комфорт 1027.8 1024.8
06 17.07 штиль 0 н/о н/о +19.7 +11.2 58 +21 +21 комфорт 1027.3 1024.3 +18.4
09 17.07 штиль 0 20 км 1/1 450 м
[Cu hum]
+22.7 +13.9 58 +26 +31 жарко 1027.9 1024.9
12 17.07 штиль 0 н/о н/о +24.9 +3.7 25 +24 +24 комфорт 1028.4 1025.5 1
15 17.07 штиль 0 20 км 1/1 540 м
[Cu Sc]
+26.5 +4.6 24 +25 +48 комфорт 1028.1 1025.2
18 17.07 штиль 0 н/о н/о +25.3 +3.4 24 +24 +24 комфорт 1027.4 1024.5 +27.2 1
21 17.07 штиль 0 н/о н/о +22.7 +0.7 23 +22 +22 комфорт 1027.3 1024.4
00 18.07 штиль 0 н/о н/о +22.3 +2.7 28 +22 +22 комфорт 1027.2 1024.3 0.1
03 18.07 штиль 0 н/о н/о +22.2 -0.5 22 +21 +21 комфорт 1026.3 1023.4
06 18.07 штиль 0 н/о н/о +22.2 0.0 23 +22 +22 комфорт 1025.5 1022.5 +22.0 0.1
09 18.07 штиль 0 н/о н/о +23.7 +2.7 25 +23 +23 комфорт 1025.7 1022.8
12 18.07 штиль 0 20 км 6/4 300 м
[Cu Sc Ac trans]
+25.5 +4.2 25 +25 +35 комфорт 1025.7 1022.8
15 18.07 штиль 0 н/о н/о +25.0 +3.9 25 +24 +24 комфорт 1025.0 1022.0
18 18.07 штиль 0 20 км 1/1 300 м
[Cu Sc]
+25.1 +3.3 24 +24 +33 комфорт 1024.1 1021.2 +27.2
21 18.07 штиль 0 н/о н/о +23.0 +10.1 44 +25 +25 комфорт 1024.0 1021.1
00 19.07 штиль 0 н/о н/о +22.6 +13.8 58 +26 +26 жарко 1024.3 1021.3 0.9
03 19.07 штиль 0 н/о н/о +22.2 +12.2 53 +25 +25 комфорт 1023.3 1020.4
06 19.07 штиль 0 н/о н/о +22.0 +12.3 54 +24 +24 комфорт 1022.8 1019.9 +22.0 2
09 19.07 штиль 0 20 км 9/9 270 м
[Cu Sc]
+23.1 +14.7 59 +27 +28 душно 1023.3 1020.4
12 19.07 штиль 0 н/о н/о +25.6 +16.9 59 +29 +29 душно 1023.6 1020.7
15 19.07 штиль 0 20 км 4/4 270 м
[Cu Sc]
+25.9 +16.8 57 +30 +45 душно 1023.1 1020.2
18 19.07 штиль 0 н/о н/о +25.6 +15.9 55 +29 +29 душно 1022.5 1019.6 +27.4 0.1
21 19.07 штиль 0 н/о н/о +23.1 +14.1 57 +27 +27 душно 1022.5 1019.6
00 20.07 штиль 0 н/о н/о +22.5 +13.0 55 +25 +25 комфорт 1023.3 1020.3
03 20.07 штиль 0 н/о н/о +22.4 +13.4 57 +25 +25 комфорт 1022.5 1019.6
06 20.07 штиль 0 н/о н/о +21.9 +13.2 58 +25 +25 комфорт 1021.6 1018.7 +21.9
09 20.07 штиль 0 н/о н/о +23.8 +14.8 57 +27 +27 жарко 1022.5 1019.6
12 20.07 штиль 0 20 км 6/5 270 м
[Cu Sc Ci fib]
+24.9 +16.1 58 +28 +39 жарко 1022.5 1019.6
15 20.07 штиль 0 20 км 1/1 480 м
[Cu hum Ci fib]
+26.6 +17.4 57 +31 +53 опасность
солнечного
удара
1022.4 1019.5
18 20.07 штиль 0 н/о н/о +26.2 +16.6 56 +30 +30 душно 1021.5 1018.6 +27.8
21 20.07 штиль 0 н/о н/о +23.9 +15.4 59 +27 +27 жарко 1021.9 1019.0
00 21.07 штиль 0 н/о н/о +22.9 +14.1 58 +26 +26 жарко 1021.3 1018.3
03 21.07 штиль 0 н/о н/о +22.7 +14.3 59 +26 +26 жарко 1019.5 1016.6
06 21.07 штиль 0 н/о н/о +22.3 +14.0 59 +25 +25 комфорт 1018.4 1015.5 +22.0
09 21.07 штиль 0 н/о н/о +24.4 +15.8 59 +28 +28 душно 1018.5 1015.6
12 21.07 штиль 0 н/о н/о +26.4 +17.3 57 +30 +30 душно 1018.1 1015.2
15 21.07 штиль 0 н/о н/о +26.0 +17.1 58 +30 +30 душно 1017.2 1014.3
18 21.07 штиль 0 н/о н/о +26.3 +17.4 58 +30 +30 душно 1015.9 1013.0 +27.0 1
21 21.07 штиль 0 н/о н/о +24.4 +15.8 59 +28 +28 душно 1016.3 1013.4
00 22.07 штиль 0 н/о н/о +24.2 +15.7 59 +27 +27 жарко 1015.4 1012.5
03 22.07 штиль 0 н/о н/о +23.7 +15.3 59 +27 +27 жарко 1014.2 1011.3
06 22.07 штиль 0 н/о н/о +21.6 +13.3 59 +24 +24 комфорт 1013.3 1010.4 +20.3 14
09 22.07 штиль 0 11 км {дождь} 8/8 300 м
[Cu Sc]
+22.4 +14.0 59 +26 +27 жарко 1014.9 1012.0
12 22.07 штиль 0 н/о н/о +23.5 +15.0 59 +26 +26 жарко 1016.0 1013.1 5
15 22.07 штиль 0 н/о н/о +25.1 +16.3 58 +28 +28 жарко 1016.3 1013.4
18 22.07 штиль 0 20 км 1/1 420 м
[Cu hum]
+24.8 +16.1 58 +28 +36 жарко 1017.0 1014.1 +26.0 5
21 22.07 штиль 0 н/о н/о +22.0 +13.6 59 +25 +25 комфорт 1017.7 1014.8
00 23.07 штиль 0 н/о н/о +22.1 +12.7 55 +25 +25 комфорт 1018.6 1015.6
03 23.07 штиль 0 н/о н/о +22.0 +13.2 57 +25 +25 комфорт 1017.3 1014.4
06 23.07 штиль 0 н/о н/о +21.5 +13.0 58 +24 +24 комфорт 1016.6 1013.7 +21.2
09 23.07 штиль 0 20 км 5/1 400 м
[Cu hum Ci fib]
+23.2 +15.0 60 +27 +32 душно 1017.1 1014.2
12 23.07 штиль 0 н/о н/о +24.7 +15.4 56 +28 +28 душно 1017.7 1014.8

 

Местоположение метеостанции Остров Грасьоса (Португалия): широта 39.08 долгота -28.03 высота над уровнем моря 31 м.

В архиве по умолчанию представлена погода на Острове Грасьоса за последнюю неделю. Архивные данные за месяц целиком и за предыдущие месяцы, начиная с января 2011 года, Вы можете получить, выбрав интересующий диапазон дат из раскрывающегося списка и нажав кнопку "Ввод!".


*Определитесь, кто Вы:
робот инопланетянин человек

Внимание! Время в таблицах - всемирное. Для получения местного времени необходимо прибавить поправку, которая равна 0 ч.

Смотрите также архив погоды в соседних городах и на ближайших метеорологических станциях:

Погода в Сан-Жоржи (Португалия) (48 км)
Погода в Пико (Португалия) (69 км)
Погода в Орте (Португалия) (81 км)
Погода в Ангра-ду-Эроижму (Португалия) (84 км)
Погода в Каштелу-Бранку (Португалия) (86 км)
Погода в Аэропорту Лажеша (Португалия) (88 км)
Погода в Понта-Делгаде (Португалия) (253 км)
Погода на Флошише (Португалия) (270 км)
Погода в Санта-Марии (Португалия) (344 км)
Погода в Фуншале (Португалия) (1232 км)

Пояснения к столбцам:

Ветер - указаны скорость ветра в м/с - средняя за 10 мин, порывы в срок и между сроками (в фигурных скобках) и направление, откуда дует ветер: С - северный, СВ - северо-восточный, В - восточный, ЮВ - юго-восточный, Ю - южный, ЮЗ - юго-западный, З - западный, СЗ - северо-западный.
Видимость - горизонтальная дальность видимости в метрах или километрах. При видимости от 1 до 10 км при отсутствии осадков обычно наблюдается дымка, при ухудшении видимости до 1 км и менее - туман. В сухую погоду видимость может ухудшаться дымом, пылью или мглою.
Явления - указаны атмосферные явления, наблюдавшиеся в срок или в последний час перед сроком; фигурными скобками обозначены явления, наблюдавшиеся между сроками (за 1-3 часа до срока); квадратными скобками обозначены град или гололедные отложения с указанием их диаметра в мм.
Облачность - указаны через наклонную черту общая и нижняя облачность в баллах и высота нижней границы облаков в метрах; квадратными скобками обозначены формы облаков: Ci - перистые, Cs - перисто-слоистые, Cc - перисто-кучевые, Ac - высококучевые, As - высокослоистые, Sc - слоисто-кучевые, Ns - слоисто-дождевые, Cu - кучевые, Cb - кучево-дождевые. Подробнее классификацию облаков см. в Атласе облаков (PDF).
T - Температура воздуха - температура, измеренная на высоте 2 м над землей.
Td - Температура точки росы - температура, при понижении до которой содержащийся в воздухе водяной пар достигнет насыщения.
f - Относительная влажность воздуха - влажноcть воздуха, измеренная на высоте 2 м над землей.
Te - Эффективная температура - температура, которую ощущает одетый по сезону человек в тени. Характеристика душности погоды. При расчете учитывается влияние влажности воздуха и скорости ветра на теплоощущения человека.
Tes - Эффективная температура на солнце - температура, которую ощущает человек, с поправкой на солнечный нагрев. Характеристика знойности погоды. Зависит от высоты солнца над горизонтом, облачности и скорости ветра. Ночью, в пасмурную погоду, а также при ветре 12 м/с и более поправка равна нулю.
P - Атмосферное давление - приведенное к уровню моря атмосферное давление.
Po - Атмосферное давление - измеренное на уровне метеостанции атмосферное давление.
Tmin - Минимальная температура - минимум температуры воздуха на высоте 2 м над землей.
Tmax - Максимальная температура - максимум температуры воздуха на высоте 2 м над землей.
R - Количество осадков - Количество выпавших осадков за период времени, мм. При наведении курсора мыши на число - период времени, за который выпало указанное количество осадков.
R24 - Количество осадков - Количество выпавших осадков за 24 часа, мм.
S - Снежный покров - Высота снежного покрова, см. При наведении курсора мыши на число - состояние снежного покрова и степень покрытия местности в баллах.